Location: Gu�tanj
(46.5431°N, 14.9692°E)
Time: 16:36:06
(UTC+00:00)

ATLAS CENTAUR R/B - Pass Details

Date: 03 March 2021
Orbit: 475 x 670 km, 64.7° (Epoch: 30 March)

Event Time Altitude Azimuth Distance (km) Brightness Sun altitude
Rises 18:18:59 0° 216° (SW) 2,521 5.1 -16.2°
Reaches altitude 10° 18:21:06 10° 216° (SW) 1,640 4.1 -16.6°
Maximum altitude 18:24:44 89° 289° (WNW) 482 0.9 -17.2°
Enters shadow 18:27:02 22° 36° (NE) 1,106 2.6 -17.6°
